Weather History for Chicopee, MA

Change the Weather History Date:

Monday, June 17, 2013

  Actual Average Record
Temperature  
Mean Temperature 70 °F -  
Max Temperature 86 °F 75 °F 89 °F (2000)
Min Temperature 55 °F 56 °F 50 °F (2012)
Cooling Degree Days 4    
Growing Degree Days 20 (Base 50)    
Moisture  
Dew Point 60 °F    
Average Humidity 88    
Maximum Humidity 100    
Minimum Humidity 40    
Precipitation  
Precipitation 0.23 in - - ()
Sea Level Pressure  
Sea Level Pressure 29.89 in    
Wind  
Wind Speed 5 mph (SSE)    
Max Wind Speed 32 mph    
Max Gust Speed 40 mph    
Visibility 5 miles    
Events Fog , Rain , Thunderstorm    
Averages and records for this station are not official NWS values.
T = Trace of Precipitation, MM = Missing Value Source: NWS Daily Summary

Daily Weather History Graph

Daily Weather History Graph

Search for Another Location

Airport:

Trip Planner

Search our weather history database for the weather conditions in past years. The results will help you decide how hot, cold, wet, or windy it might be!

Date:

Astronomy

Jun. 17, 2013 Rise Set
Actual Time 5:13 AM EDT 8:28 PM EDT
Civil Twilight 4:38 AM EDT 9:03 PM EDT
Nautical Twilight 3:54 AM EDT 9:48 PM EDT
Astronomical Twilight 2:59 AM EDT 10:42 PM EDT
Moon 1:59 PM EDT (6/17) 12:53 AM EDT (6/17)
Length of Visible Light 16h 24m
Length of Day
15h 15m
First Quarter, 60% of the Moon is Illuminated
Jun 17
First Quarter
Jun 23
Full
Jun 30
Last Quarter
Jul 8
New
Jul 15
First Quarter

Hourly Weather History & Observations

Time (EDT) Temp. Heat Index Dew Point Humidity Pressure Visibility Wind Dir Wind Speed Gust Speed Precip Events Conditions
12:58 AM 66.4 °F - 58.8 °F 77% 29.84 in 10.0 mi WSW 5.8 mph - N/A   Clear
1:58 AM 64.0 °F - 58.8 °F 83% 29.84 in 10.0 mi West 5.8 mph - N/A   Clear
2:58 AM 59.7 °F - 59.2 °F 98% 29.86 in 10.0 mi SW 5.8 mph - N/A   Clear
3:58 AM 61.2 °F - 60.4 °F 97% 29.85 in 10.0 mi Calm Calm - N/A   Clear
4:58 AM 57.7 °F - 57.2 °F 98% 29.87 in 10.0 mi Calm Calm - N/A   Clear
5:58 AM 55.4 °F - 55.0 °F 99% 29.88 in 5.0 mi ENE 1.2 mph - N/A   Clear
6:58 AM 63.3 °F - 62.6 °F 97% 29.89 in 10.0 mi SSE 4.6 mph - N/A   Clear
7:58 AM 68.4 °F - 63.7 °F 85% 29.90 in 10.0 mi South 5.8 mph - N/A   Clear
8:58 AM 72.5 °F - 64.2 °F 75% 29.88 in 10.0 mi SSW 3.5 mph - N/A   Clear
9:22 AM 73.4 °F - 62.6 °F 69% 29.87 in 10.0 mi Variable 3.5 mph - N/A   Light Drizzle
9:24 AM 73.4 °F - 62.6 °F 69% 29.87 in 10.0 mi Variable 3.5 mph - N/A   Clear
9:58 AM 75.4 °F - 63.7 °F 67% 29.88 in 10.0 mi SSW 6.9 mph - 0.00 in   Clear
10:58 AM 77.4 °F - 63.9 °F 63% 29.87 in 10.0 mi South 4.6 mph - N/A   Clear
11:58 AM 80.6 °F 81.7 °F 62.2 °F 53% 29.85 in 10.0 mi South 8.1 mph 17.3 mph N/A   Partly Cloudy
12:58 PM 82.2 °F 83.0 °F 62.1 °F 50% 29.85 in 10.0 mi SSW 10.4 mph - N/A   Partly Cloudy
1:58 PM 84.4 °F 84.4 °F 60.1 °F 44% 29.82 in 10.0 mi SW 10.4 mph 19.6 mph N/A   Partly Cloudy
2:58 PM 83.5 °F 83.1 °F 58.5 °F 42% 29.81 in 10.0 mi SSW 15.0 mph - N/A   Partly Cloudy
3:58 PM 82.4 °F 82.5 °F 59.0 °F 45% 29.81 in 10.0 mi SSW 12.7 mph - N/A   Mostly Cloudy
4:51 PM 84.2 °F 83.5 °F 57.2 °F 40% 29.79 in 10.0 mi West 11.5 mph - N/A Thunderstorm Scattered Clouds
4:58 PM 83.1 °F 82.6 °F 57.4 °F 41% 29.79 in 10.0 mi WNW 12.7 mph - N/A Thunderstorm Scattered Clouds
5:03 PM 80.6 °F 81.1 °F 59.0 °F 48% 29.83 in 10.0 mi North 32.2 mph 39.1 mph N/A Rain , Thunderstorm Light Rain Showers
5:09 PM 80.6 °F 81.1 °F 59.0 °F 48% 29.83 in 6.0 mi North 27.6 mph 40.3 mph N/A Rain , Thunderstorm Light Thunderstorms and Rain
5:31 PM 64.4 °F - 60.8 °F 88% 29.87 in 2.0 mi North 11.5 mph - N/A Rain , Thunderstorm Thunderstorms and Rain
5:46 PM 64.4 °F - 60.8 °F 88% 29.87 in 3.0 mi North 12.7 mph - N/A Rain , Thunderstorm Light Thunderstorms and Rain
5:58 PM 63.9 °F - 62.2 °F 94% 29.87 in 5.0 mi North 10.4 mph - 0.21 in Rain , Thunderstorm Light Thunderstorms and Rain
6:04 PM 64.4 °F - 62.6 °F 94% 29.85 in 8.0 mi NNW 6.9 mph - N/A Rain Light Rain Showers
6:35 PM 64.4 °F - 64.4 °F 100% 29.86 in 10.0 mi ESE 4.6 mph - N/A   Mostly Cloudy
6:58 PM 65.7 °F - 64.4 °F 96% 29.87 in 10.0 mi ESE 4.6 mph - 0.02 in   Partly Cloudy
7:58 PM 65.8 °F - 64.8 °F 96% 29.90 in 10.0 mi SSE 5.8 mph - N/A   Partly Cloudy
8:58 PM 63.7 °F - 63.1 °F 98% 29.92 in 10.0 mi South 3.5 mph - N/A   Partly Cloudy
9:58 PM 61.3 °F - 61.0 °F 99% 29.93 in 10.0 mi Calm Calm - N/A   Partly Cloudy
10:58 PM 58.1 °F - 57.7 °F 99% 29.92 in 5.0 mi NE 2.3 mph - N/A   Clear
10:59 PM 59.0 °F - 59.0 °F 100% 29.91 in 0.2 mi Calm Calm - N/A Fog Fog
11:01 PM 59.0 °F - 59.0 °F 100% 29.91 in 0.5 mi Calm Calm - N/A Fog Fog
11:03 PM 59.0 °F - 59.0 °F 100% 29.91 in 0.5 mi NNE 1.2 mph - N/A Fog Fog
11:06 PM 59.0 °F - 59.0 °F 100% 29.91 in 0.8 mi NE 2.3 mph - N/A   Clear
11:07 PM 59.0 °F - 59.0 °F 100% 29.91 in 0.8 mi NE 2.3 mph - N/A   Clear
11:08 PM 59.0 °F - 59.0 °F 100% 29.91 in 1.0 mi ENE 2.3 mph - N/A   Clear
11:09 PM 59.0 °F - 59.0 °F 100% 29.91 in 1.0 mi NE 2.3 mph - N/A   Clear
11:11 PM 59.0 °F - 59.0 °F 100% 29.91 in 1.2 mi NE 2.3 mph - N/A   Clear
11:13 PM 59.0 °F - 59.0 °F 100% 29.91 in 1.0 mi NE 2.3 mph - N/A   Clear
11:14 PM 59.0 °F - 59.0 °F 100% 29.91 in 1.0 mi NE 2.3 mph - N/A   Clear
11:15 PM 59.0 °F - 59.0 °F 100% 29.91 in 0.8 mi NE 2.3 mph - N/A   Clear
11:16 PM 59.0 °F - 59.0 °F 100% 29.91 in 0.8 mi NE 2.3 mph - N/A   Clear
11:17 PM 59.0 °F - 59.0 °F 100% 29.91 in 0.8 mi NE 2.3 mph - N/A   Clear
11:18 PM 59.0 °F - 59.0 °F 100% 29.91 in 0.5 mi NE 3.5 mph - N/A Fog Fog
11:20 PM 59.0 °F - 59.0 °F 100% 29.91 in 0.5 mi NE 3.5 mph - N/A Fog Fog
11:27 PM 57.2 °F - 57.2 °F 100% 29.91 in 0.5 mi ENE 2.3 mph - N/A Fog Fog
11:31 PM 57.2 °F - 57.2 °F 100% 29.91 in 0.8 mi Calm Calm - N/A   Clear
11:33 PM 57.2 °F - 57.2 °F 100% 29.91 in 0.8 mi South 2.3 mph - N/A   Clear
11:34 PM 59.0 °F - 57.2 °F 94% 29.91 in 1.0 mi South 2.3 mph - N/A   Clear
11:35 PM 59.0 °F - 59.0 °F 100% 29.91 in 1.0 mi South 2.3 mph - N/A   Clear
11:36 PM 59.0 °F - 59.0 °F 100% 29.91 in 1.2 mi South 2.3 mph - N/A   Clear
11:37 PM 59.0 °F - 59.0 °F 100% 29.91 in 1.0 mi South 1.2 mph - N/A   Clear
11:39 PM 59.0 °F - 57.2 °F 94% 29.91 in 1.0 mi Calm Calm - N/A   Clear
11:40 PM 57.2 °F - 57.2 °F 100% 29.91 in 0.8 mi Calm Calm - N/A   Clear
11:41 PM 59.0 °F - 57.2 °F 94% 29.91 in 0.8 mi Calm Calm - N/A   Clear
11:42 PM 59.0 °F - 57.2 °F 94% 29.91 in 0.8 mi Calm Calm - N/A   Clear
11:43 PM 59.0 °F - 57.2 °F 94% 29.91 in 0.5 mi Calm Calm - N/A Fog Fog
11:48 PM 59.0 °F - 59.0 °F 100% 29.91 in 0.8 mi West 1.2 mph - N/A   Clear
11:51 PM 59.0 °F - 59.0 °F 100% 29.91 in 0.8 mi SSW 2.3 mph - N/A   Clear
11:52 PM 59.0 °F - 59.0 °F 100% 29.91 in 1.0 mi South 2.3 mph - N/A   Clear
11:53 PM 59.0 °F - 59.0 °F 100% 29.91 in 1.2 mi South 2.3 mph - N/A   Clear
11:54 PM 59.0 °F - 59.0 °F 100% 29.91 in 1.5 mi South 2.3 mph - N/A   Clear
11:56 PM 59.0 °F - 59.0 °F 100% 29.91 in 1.2 mi South 2.3 mph - N/A   Clear
11:57 PM 59.0 °F - 59.0 °F 100% 29.91 in 1.2 mi SSW 2.3 mph - N/A   Clear
11:58 PM 59.0 °F - 59.0 °F 100% 29.93 in 1.0 mi SSW 2.3 mph - N/A   Clear